Location: Unspecified
(0.0000°N, 0.0000°E)
Time: 03:39:43
(UTC+00:00)

ARIANE 6 FM1 Upper Stage - Pass Details

Date: 05 March 2026
Orbit: 523 x 606 km, 62.0° (Epoch: 16 March)

Event Time Altitude Azimuth Distance (km) Brightness Sun altitude
Exits shadow 04:13:59 38° 110° (ESE) 886 4.0 -29.2°
Drops below altitude 10° 04:17:46 10° 46° (NE) 1,861 5.8 -28.3°
Sets 04:20:04 0° 38° (NE) 2,739 6.6 -27.7°
